Location: Asheville, NC
(35.6000°N, 82.5500°W)
Time: 07:33:45
(UTC-04:00)

ISS - Pass Details

Date: 20 March 2019
Orbit: 408 x 411 km, 51.6° (Epoch: 24 March)

Event Time Altitude Azimuth Distance (km) Brightness Sun altitude
Rises 20:47:46 0° 217° (SW) 2,316 0.4 -14.2°
Reaches altitude 10° 20:49:52 10° 212° (SSW) 1,459 -0.7 -14.6°
Maximum altitude 20:53:04 53° 135° (SE) 506 -3.7 -15.2°
Enters shadow 20:54:10 34° 77° (ENE) 691 -3.2 -15.4°
